Tracking 33198 objects as of 14-Feb-2026
HD Live streaming from Space Station
objects crossing your sky now

THORAD AGENA D DEB

Track THORAD AGENA D DEB now!
10-day predictions


NORAD ID: 4895
Int'l Code: 1969-082HE
Perigee: 730.8 km
Apogee: 783.9 km
Inclination: 70.2 °
Period: 99.8 minutes
Semi major axis: 7128 km
RCS: 0.0073 m2 (small)
Launch date: September 30, 1969
Source: United States (US)
Launch site: AIR FORCE WESTERN TEST RANGE (AFWTR)

Note: This is SATELLITE DEBRIS
Your satellite tracking list
Your tracking list is empty




NASA's NSSDC Master Catalog

Two Line Element Set (TLE):
1  4895U 69082HE  26043.96604104  .00001450  00000-0  45072-3 0  9997
2  4895  70.1722   4.5956 0037253 109.3472 251.1693 14.42513539925282
Source of the keplerian elements: AFSPC